sat.trackr.live / text

‹ back to catalog

STARLINK-34777

NORAD 65339 · 2025-189S

PAYLOAD ACTIVE UNKNOWN

§ Identity

Operator
Country
US
Launch date
2025-08-27
Launch site
AFETR
Launch vehicle
Mass (kg)
RCS (m²)

Purposes: comms

External: N2YO · Heavens-Above · Gunter

§ Orbital elements

Epoch: 2026-09-20T13:38:22.854912Z

Period
94.01 min
Inclination
53.1588°
Eccentricity
0.0000831
Mean motion
15.31713859 rev/d
Perigee alt
470.1 km
Apogee alt
471.3 km
Semi-major
6,848.8 km
B*
2.0472e-4
RAAN
20.1298°
Arg perigee
80.8202°
Mean anomaly
279.2893°
Rev number
6,097

§ Raw data

STARLINK-347771 65339U 25189S   26263.56832008  .00005996  00000+0  20472-3 0  99982 65339  53.1588  20.1298 0000831  80.8202 279.2893 15.31713859 60977

JSON: /api/v1/satellites/65339 · /tle

For live sub-satellite position, see the globe view (requires WebGL).

§ Visibility from observer

Set your observer location to see the next 7 days of passes ≥ 10°. The values pass through the URL so the page stays shareable.

No JS? Fill the form by hand. The geolocation button needs JavaScript.